Content
SEND FEEDBACK

Daily
Averages
Monthly
Summary
Mexico

COZUMEL, QUINTANA ROO


Home > North America > Mexico > Quintana Roo
Elevation: 15 feet     Latitude: 20 31N     Longitude: 086 56W

WEATHER
 
SELECT A DAY
Number of Records: 128,602;   Date Range: 1/1/95 - 12/19/14
 
SHARE

PRINT THIS DATA

[ ← Previous Day ]
WEATHER ALMANAC - OCTOBER 2, 2013
[ Next Day → ]
[ °C ]   °F
Weather ElementAverageHighLow
Temperature75.6 °F84.2 °F (12:43 pm)71.6 °F (7:47 pm)
Dewpoint73.2 °F75.2 °F (10:41 am)71.6 °F (7:47 pm)
Humidity92.8 %100 % (1:40 am)74 % (12:43 pm)
Barometer29.84 in29.92 in (9:46 am)29.79 in (4:49 pm)
Wind Speed5 mph13.8 mph (11:40 am)
Weather ElementAverage
Visibility7 mi
Wind DirectionENE (69.1 °)

Weather ElementTotal
Precipitation---
Cooling Degree Days12.9 (Base 65)
Growing Degree Days27.9 (Base 50)
Averaged from 23 records on October 2, 2013
WEATHER CONDITIONS BREAKOUT
WIND DIRECTION BREAKOUT
WEATHER BY HOUR - OCTOBER 2, 2013
[ °C ]   °F
Local TimeTemperatureDewpointHumidityBarometerVisibilityWind DirectionWind SpeedGust SpeedPrecipitationEventsConditions
1:40 AM73.4 °F73.4 °F100 %29.89 in7.0 miENE (70°)3.5 mphPartly Cloudy
2:51 AM75.2 °F73.4 °F94 %29.86 in6.0 miNE (50°)3.5 mphRainLight Rain
3:41 AM73.4 °F73.4 °F100 %29.87 in7.0 miNE (40°)3.5 mphPartly Cloudy
4:45 AM75.2 °F73.4 °F94 %29.84 in7.0 miNNE (20°)4.6 mphPartly Cloudy
5:40 AM73.4 °F73.4 °F100 %29.84 in7.0 miNorth (350°)6.9 mphPartly Cloudy
6:44 AM75.2 °F73.4 °F94 %29.83 in7.0 miNorth (10°)5.8 mphScattered Clouds
7:40 AM75.2 °F73.4 °F94 %29.86 in8.0 miNE (40°)5.8 mphScattered Clouds
8:40 AM77.0 °F73.4 °F89 %29.87 in8.0 miNE (50°)5.8 mphScattered Clouds
9:46 AM78.8 °F73.4 °F83 %29.92 in7.0 miNE (50°)9.2 mphMostly Cloudy
10:41 AM80.6 °F75.2 °F84 %29.89 in7.0 miENE (60°)9.2 mphMostly Cloudy
11:40 AM80.6 °F73.4 °F79 %29.87 in8.0 miENE (70°)13.8 mphMostly Cloudy
12:43 PM84.2 °F75.2 °F74 %29.83 in8.0 miENE (60°)11.5 mphMostly Cloudy
1:40 PM77.0 °F75.2 °F94 %29.81 in8.0 miNE (40°)6.9 mphOvercast
2:46 PM78.8 °F73.4 °F83 %29.80 in8.0 miENE (70°)8.1 mphOvercast
3:51 PM78.8 °F73.4 °F83 %29.81 in8.0 miENE (70°)4.6 mphOvercast
4:49 PM77.0 °F73.4 °F89 %29.79 in8.0 miCalmOvercast
5:40 PM73.4 °F73.4 °F100 %29.79 in6.0 miCalmOvercast
6:45 PM73.4 °F73.4 °F100 %29.79 in7.0 miCalmOvercast
7:47 PM71.6 °F71.6 °F100 %29.79 in6.0 miCalmMostly Cloudy
8:43 PM71.6 °F71.6 °F100 %29.81 in3.0 miCalmRainLight Rain
9:48 PM71.6 °F71.6 °F100 %29.84 in7.0 miCalmMostly Cloudy
10:42 PM71.6 °F71.6 °F100 %29.82 in7.0 miWest (280°)6.9 mphMostly Cloudy
11:47 PM71.6 °F71.6 °F100 %29.82 in7.0 miWest (260°)5.8 mphScattered Clouds
Hourly data recorded from MMCZ, located miles away from Cozumel, Quintana Roo







STORIES FROM OUR PARTNERS